Starlink 4723

operational
NORAD ID: 53797 Int'l Des: 2022-111 Owner: SPXS Country: US Constellation: starlink
LEOCIRCULAR

About Starlink 4723

Description loading...

Live Position

Loading 3D Globe...

Upcoming Passes

Altitude History

Altitude vs Time

uPlot chart will show altitude changes over time

Two-Line Element Set

1 53797U 22111AA 26046.90556087 -.00000832 00000-0 -34216-4 0 9991
2 53797 53.2183 11.4736 0001533 120.7220 239.3923 15.08832059190397
Epoch: Feb 15, 2026 • Age: 11 hours

Current Status

Altitude 559.1 km
Velocity 7.58 km/s
Sub-Earth Point -52.81°S, 17.16°E
Launch Date Sep 11, 2022
Age 3.4 years
Type internet

Technical Details

Classification Payload
Mass 305.00 kg
Dry Mass 290.00 kg
Total Mass 305.00 kg
Length 0.20 m
Diameter 2.80 m
Span 9.00 m
Shape Box + pan
Manufacturer SPXS
Bus Type Starlink
Phase Status In Orbit
Owner/State SPXS/US

Large Constellations

Loading constellations...